SCP
0 0 0 0 0 0 0 0 0 0 0 0 0 0 0 0 0 0 1 1 1 1 1 1 1 1 0 0 0 0 0 0 0 0 0 0 0 0 0 0 0 0 0 0
0 0 0 0 0 0 0 0 0 0 0 0 0 0 0 0 0 0 1 1 1 1 1 1 1 1 0 0 0 0 0 0 0 0 0 0 0 0 0 0 0 0 0 0
0 0 0 0 0 0 0 0 0 0 0 0 0 0 0 0 0 0 1 1 1 1 1 1 1 0 0 0 0 0 0 0 0 0 0 0 0 0 0 0 0 0 0 0
0 0 0 0 0 0 0 0 0 0 0 0 0 0 0 0 0 0 1 1 1 1 1 1 1 0 0 0 0 0 0 0 0 0 0 0 0 0 0 0 0 0 0 0
0 0 0 0 0 0 0 0 0 0 0 0 0 0 0 0 0 0 1 1 1 1 1 1 0 0 0 0 0 0 0 0 0 0 0 0 0 0 0 0 0 0 0 0
0 0 0 0 0 0 0 0 0 0 0 0 0 0 0 0 0 0 1 1 1 1 1 1 0 0 0 0 0 0 0 0 0 0 0 0 0 0 0 0 0 0 0 0
0 0 0 0 0 0 0 0 0 0 0 0 0 0 0 0 0 0 0 1 1 1 1 1 0 0 0 0 0 0 0 0 0 0 0 0 0 0 0 0 0 0 0 0
0 0 0 0 0 0 0 0 0 0 0 0 0 0 0 0 0 0 0 0 1 1 1 0 0 0 0 0 0 0 0 0 0 0 0 0 0 0 0 0 0 0 0 0
0 0 0 0 0 0 0 0 0 0 0 0 0 0 0 0 0 0 0 0 1 1 1 0 0 0 0 0 0 0 0 0 0 0 0 0 0 0 0 0 0 0 0 0
0 0 0 0 0 0 0 0 0 0 0 0 0 0 0 0 0 0 0 0 1 1 1 0 0 0 0 0 0 0 0 0 0 0 0 0 0 0 0 0 0 0 0 0
0 0 0 0 0 0 0 0 0 0 0 0 0 0 0 0 0 0 0 0 1 1 1 0 0 0 0 0 0 0 0 0 0 0 0 0 0 0 0 0 0 0 0 0
0 0 0 0 0 0 0 0 0 0 0 0 0 0 0 0 0 0 0 0 1 1 0 0 0 0 0 0 0 0 0 0 0 0 0 0 0 0 0 0 0 0 0 0
0 0 0 0 0 0 0 0 0 0 0 0 0 0 0 0 0 0 0 0 0 0 0 0 0 0 0 0 0 0 0 0 0 0 0 0 0 0 0 0 0 0 0 0
0 0 0 0 0 0 0 0 0 0 0 0 0 0 0 0 0 0 0 0 0 0 0 0 0 0 0 0 0 0 0 0 0 0 0 0 0 0 0 0 0 0 0 0
0 0 0 0 0 0 0 0 0 0 0 0 0 0 0 0 0 0 0 0 0 0 0 0 0 0 0 0 0 0 0 0 0 0 0 0 0 0 0 0 0 0 0 0
0 0 0 0 0 0 0 0 0 0 0 0 0 0 0 0 0 0 0 0 0 0 0 0 0 0 0 0 0 0 0 0 0 0 0 0 0 0 0 0 0 0 0 0
0 0 0 0 0 0 0 0 0 0 0 0 0 0 0 0 0 0 0 0 0 0 0 0 0 0 0 0 0 0 0 0 0 0 0 0 0 0 0 0 0 0 0 0
0 0 0 0 0 0 0 0 0 0 0 0 0 0 0 0 0 0 0 0 0 0 0 0 0 0 0 0 0 0 0 0 0 0 0 0 0 0 0 0 0 0 0 0
0 0 0 0 0 0 0 0 0 0 0 0 0 0 0 0 0 0 0 0 0 0 0 0 0 0 0 0 0 0 0 0 0 0 0 0 0 0 0 0 0 0 0 0
0 0 0 0 0 0 0 0 0 0 0 0 0 0 0 0 0 0 0 0 0 0 0 0 0 0 0 0 0 0 0 0 0 0 0 0 0 0 0 0 0 0 0 0
0 0 0 0 0 0 0 0 0 0 0 0 0 0 0 0 0 0 0 0 0 0 0 0 0 0 0 0 0 0 0 0 0 0 0 0 0 0 0 0 0 0 0 0
0 0 0 0 0 0 0 0 0 0 0 0 0 0 0 0 0 0 0 0 0 0 0 0 0 0 0 0 0 0 0 0 0 0 0 0 0 0 0 0 0 0 0 0
0 0 0 0 0 0 0 0 0 0 0 0 0 0 0 0 0 0 0 0 0 0 0 0 0 0 0 0 0 0 0 0 0 0 0 0 0 0 0 0 0 0 0 0
0 0 0 0 0 0 0 0 0 0 0 0 0 0 0 0 0 0 0 0 0 0 0 0 0 0 0 0 0 0 0 0 0 0 0 0 0 0 0 0 0 0 0 0
0 0 0 0 0 0 0 0 0 0 0 0 0 0 0 0 0 0 0 0 0 0 0 0 0 0 0 0 0 0 0 0 0 0 0 0 0 0 0 0 0 0 0 0
0 0 0 0 0 0 0 0 0 0 0 0 0 0 0 0 0 0 0 0 0 0 0 0 0 0 0 0 0 0 0 0 0 0 0 0 0 0 0 0 0 0 0 0
Wind_Speed
1 3 2 4 5 4 3 2 2 2 2 2 4 4 3 2 3 4 4 6 6 5 5 6 7 7 7 7 7 7 6 5 4 3 2 2 1 0 1 1 1 2 2 3
3 2 5 3 2 2 3 3 2 2 2 2 3 2 2 1 4 5 6 6 7 5 5 5 6 6 7 7 7 6 7 5 4 3 2 2 2 1 0 1 1 1 2 2
5 4 4 4 3 4 4 5 5 3 1 2 3 2 3 2 0 3 4 5 7 9 9 7 7 6 6 7 7 7 6 5 4 4 3 3 3 3 2 2 1 1 1 1
4 4 4 4 5 5 4 6 6 5 4 0 2 1 4 2 1 3 4 4 5 6 7 7 7 6 6 6 6 6 6 5 4 5 4 4 3 2 2 1 1 1 1 0
4 4 5 5 6 6 4 4 5 4 4 2 1 3 5 1 3 4 5 6 6 6 7 8 8 7 6 6 6 6 6 5 4 4 5 5 3 2 1 0 0 1 1 1
5 3 4 5 4 6 4 5 5 4 4 1 3 3 4 4 7 6 5 6 7 6 6 6 5 6 5 4 5 5 5 4 4 4 4 5 4 3 2 1 0 1 1 1
3 3 2 3 2 2 4 6 3 2 2 3 2 2 6 6 6 8 9 8 7 7 7 7 6 6 5 5 5 5 5 4 3 4 3 4 4 4 4 3 2 1 1 1
1 3 3 2 4 4 3 7 6 5 4 2 0 3 5 4 4 6 7 7 7 6 6 7 7 6 6 6 5 5 5 4 3 3 3 3 3 3 2 3 2 2 2 2
4 4 3 3 3 7 5 3 5 5 2 1 1 2 3 3 4 5 6 7 8 7 7 6 6 5 5 5 5 5 5 4 3 3 3 2 2 3 2 2 2 2 2 2
6 3 3 2 4 3 5 6 5 5 4 2 1 2 4 5 6 6 7 8 7 7 6 6 5 4 4 4 3 4 4 4 3 3 2 2 2 2 2 1 1 1 1 1
4 3 2 1 4 5 3 3 4 4 4 5 3 6 6 10 9 9 8 8 8 8 7 6 5 4 4 4 4 4 3 3 2 2 2 2 1 1 1 1 1 1 1 1
4 5 2 4 4 5 5 6 7 6 3 3 3 6 3 8 8 9 9 8 7 7 7 6 5 4 4 4 3 3 3 3 2 2 2 2 1 1 1 0 1 0 1 1
5 5 3 4 4 0 3 4 5 6 5 4 4 5 1 5 7 7 9 8 7 7 6 5 5 4 4 4 3 3 3 2 2 3 3 2 1 1 1 0 1 1 1 1
6 4 6 7 6 4 3 3 6 7 5 4 6 5 3 6 8 7 8 8 8 7 7 6 5 4 4 4 4 4 3 3 3 3 3 2 1 1 0 0 1 1 1 1
5 3 4 5 4 4 3 5 6 6 8 8 7 8 9 10 11 10 9 9 9 8 7 7 6 4 4 4 3 3 3 2 3 4 3 1 0 1 1 1 1 2 2 2
3 3 1 1 1 2 2 4 5 5 5 6 6 4 4 6 7 8 9 11 10 8 8 7 6 5 4 4 4 3 3 2 3 4 2 1 2 2 1 1 1 2 2 2
2 3 3 2 2 2 2 6 6 5 5 9 8 7 8 8 11 12 11 11 10 9 8 7 6 6 5 4 4 4 3 3 4 3 2 2 2 2 2 2 2 2 2 2
5 4 4 2 1 3 8 4 6 7 4 5 6 7 11 11 10 8 8 10 10 9 8 7 6 5 4 4 4 4 4 4 3 2 2 1 1 1 2 2 2 2 2 2
6 6 4 3 2 3 4 1 5 7 2 4 9 9 9 10 8 2 3 8 9 9 7 6 6 5 4 4 4 5 4 3 3 2 1 0 1 1 1 2 2 1 1 2
4 5 5 4 3 5 7 4 2 8 2 4 9 12 11 10 6 5 6 7 7 7 6 6 6 5 5 4 5 6 4 3 2 2 1 1 1 1 0 1 1 1 1 2
3 3 4 4 3 7 6 3 4 5 8 5 9 12 11 8 8 7 8 8 7 7 7 7 7 5 4 4 5 5 3 2 2 2 1 0 0 1 1 1 1 1 1 2
7 5 5 5 4 8 4 3 6 7 4 7 8 9 9 7 8 9 9 9 9 8 7 7 7 5 3 4 5 4 3 2 1 1 1 0 1 1 1 0 1 1 1 2
4 7 6 7 7 5 2 4 3 5 7 6 7 8 11 10 9 9 8 8 8 7 7 5 6 5 3 3 5 4 3 2 2 2 1 0 1 1 0 0 1 1 1 1
2 2 4 1 2 1 1 3 3 5 6 6 8 9 10 9 9 9 8 7 7 6 6 5 6 5 3 2 3 3 2 2 3 2 0 0 1 1 1 1 1 1 1 2
2 2 3 1 1 3 3 2 4 6 8 8 7 7 8 10 9 8 8 7 6 5 5 5 6 5 4 3 2 2 2 3 3 2 0 0 1 1 1 2 2 2 3 4
2 4 5 6 7 5 4 3 5 8 7 8 8 7 6 8 9 8 7 6 5 5 4 4 4 4 4 3 2 2 2 3 3 2 1 1 1 1 1 2 3 5 5 8
Wind_Direction
66 80 190 205 186 188 183 164 205 236 245 129 162 192 233 201 153 162 164 167 165 173 171 160 152 152 146 142 142 145 142 145 129 113 111 104 100 80 50 66 90 87 78 69
55 253 230 217 220 211 182 173 221 270 259 154 144 191 249 211 179 175 164 166 163 148 141 146 147 151 151 156 156 152 150 150 144 145 141 141 138 143 120 39 48 60 77 67
188 232 213 207 223 210 212 199 198 177 41 59 96 360 293 290 135 132 143 159 158 162 160 158 150 152 149 153 162 160 161 156 151 138 110 85 63 45 31 18 355 340 45 67
234 233 190 206 221 187 220 207 182 161 123 189 136 178 275 229 143 144 152 156 161 160 152 155 151 154 159 164 162 155 154 151 147 135 131 132 133 149 211 222 259 309 8 47
239 203 185 204 219 182 198 169 145 135 126 104 63 132 274 216 180 197 182 169 171 165 160 162 162 163 161 158 154 155 150 153 149 141 144 138 141 168 191 106 30 344 337 330
239 232 189 203 212 175 150 87 75 63 75 72 221 156 254 220 195 187 187 178 175 169 166 159 151 144 144 141 140 144 145 152 150 144 147 149 153 154 140 133 188 312 325 323
279 270 233 176 127 108 107 98 73 40 42 253 214 159 240 230 194 178 180 184 176 166 161 152 147 148 149 145 142 142 142 147 151 148 156 162 162 162 171 186 195 211 277 284
179 266 242 189 163 162 155 135 152 169 180 254 354 220 255 236 181 168 165 164 157 159 159 159 161 158 157 155 148 142 144 151 159 157 168 174 170 169 186 193 191 203 215 232
176 243 251 199 146 138 131 147 160 124 120 109 258 271 322 77 122 141 143 145 154 161 159 159 158 157 156 156 157 155 152 154 162 162 153 157 170 180 192 197 190 207 226 229
166 211 253 191 93 60 141 145 111 121 143 151 253 245 217 186 169 157 154 156 158 155 152 151 149 149 148 146 142 138 146 156 156 150 156 149 162 171 176 161 196 229 243 235
154 162 263 159 175 174 134 124 119 114 145 147 184 255 221 190 173 162 165 163 159 156 154 151 152 153 141 125 121 124 130 127 133 146 138 125 137 128 114 119 219 242 255 234
165 131 200 245 241 174 162 170 149 146 177 156 161 260 263 174 163 156 158 159 157 153 147 144 141 133 124 127 128 127 130 137 148 140 122 130 125 101 86 61 296 284 277 274
145 121 94 347 332 258 181 177 155 136 122 148 162 252 330 131 137 150 150 152 153 145 138 131 125 126 129 128 124 123 129 134 123 111 105 97 90 88 80 336 319 341 346 356
126 124 160 189 211 198 199 184 161 136 146 174 200 199 182 155 152 156 154 152 147 144 142 137 135 136 135 132 129 124 119 115 107 100 96 90 82 98 128 355 6 4 6 19
119 148 211 226 215 177 185 188 175 169 174 171 191 185 195 183 170 163 154 146 141 142 146 148 148 147 139 132 129 124 120 113 107 98 87 76 33 36 40 24 10 7 15 13
115 152 154 294 245 152 189 208 182 179 168 157 145 200 202 156 135 140 150 151 150 152 152 151 148 145 145 145 141 133 127 124 111 105 100 74 53 42 32 18 18 16 4 356
136 136 121 258 286 50 267 225 187 176 177 159 175 199 151 142 158 167 167 161 161 160 157 157 157 157 162 166 157 150 147 121 107 104 89 69 58 41 19 22 33 11 354 359
149 131 133 163 94 210 244 244 170 155 181 174 158 158 160 161 163 165 165 162 162 161 160 160 157 156 158 147 138 134 118 114 112 103 88 69 62 40 22 29 17 347 346 348
153 141 127 130 170 264 285 249 164 149 200 186 151 148 142 123 93 79 174 161 161 160 156 154 152 145 136 134 134 121 111 109 106 109 116 111 93 64 33 8 328 317 336 330
100 108 120 129 157 224 244 261 179 109 174 226 158 151 145 128 136 210 187 154 144 141 139 138 134 122 125 135 128 116 118 119 148 195 207 201 157 145 194 283 296 310 313 301
114 98 133 157 198 254 255 263 104 136 214 198 165 157 153 160 174 169 149 141 140 136 136 134 130 129 142 142 125 122 130 167 208 208 194 219 254 228 226 275 312 323 321 331
171 165 176 153 183 246 251 142 168 198 173 150 151 155 149 136 122 129 138 140 139 134 132 134 131 133 138 136 130 132 167 206 185 143 119 346 309 306 13 360 323 331 337 332
183 186 177 179 206 243 235 179 174 142 134 142 146 146 139 129 133 136 141 143 143 141 140 135 136 136 140 145 140 148 194 180 145 120 108 342 344 333 338 230 299 321 328 315
307 96 112 111 286 316 71 98 101 119 126 131 136 136 133 134 139 139 141 142 142 141 144 139 137 140 152 164 157 169 174 149 131 130 174 300 342 330 326 297 261 272 286 294
242 88 93 104 228 62 27 82 113 102 103 108 113 124 135 132 135 142 145 148 150 147 147 146 151 158 172 173 169 174 158 132 126 135 177 295 297 274 288 289 270 259 250 247
224 170 164 206 213 170 191 182 127 117 120 127 123 114 121 133 138 136 140 144 142 141 138 142 151 159 171 169 175 186 170 151 147 155 203 239 269 282 288 299 312 296 282 290